Zurück zum Katalog

COSMOS 2251 DEB

AktivLEO
NORAD 36622·DEBRIS·🇷🇺 Russia

Gestartet Jun 16, 1993 von Plesetsk Cosmodrome

Loading…

Nächste Überflüge (nächste 24 Stunden)

TLE

AlterndSource: Space-Track

Epoche: Sep 12, 2026, 13:02 UTC

1 36622U 93036BEL 26255.54354732  .00001718  00000-0  23379-3 0  9997
2 36622  74.0149 327.6166 0065247  32.1927 328.3205 14.78145117707933

Verfolge COSMOS 2251 DEB in Echtzeit mit AllMySat

Download on the App Store